Simultaneous Nadir Overpasses (SNOs) Predictions

Prediction of SNOs between METOP-B and NOAA-19 Satellite Orbit:

Table of predicted SNOs for the next 14.0 days since TLE Epoch: 9/2/2023
Index Date (METOP-B) Time (METOP-B) Lat,Lon (METOP-B) SZA (METOP-B ) Date (NOAA-19) Time (NOAA-19) Lat,Lon (NOAA-19) SZA (NOAA-19 ) Distance(km) Time Diff (sec)
1 09/12/2023 21:53:30 -80.65, 60.86 102.12 09/12/2023 21:52:21 -80.63, 58.23 102.37 47.59 69
2 09/12/2023 22:44:02 80.82,-128.93 78.30 09/12/2023 22:42:59 80.83,-128.84 78.28 1.53 63
3 09/12/2023 23:34:43 -80.83, 38.44 101.69 09/12/2023 23:34:04 -80.83, 38.41 101.71 0.53 39
4 09/13/2023 00:25:23 80.83,-154.09 78.35 09/13/2023 00:24:57 80.83,-154.02 78.34 1.22 26
5 09/13/2023 01:16:04 -80.84, 13.28 101.64 09/13/2023 01:16:02 -80.83, 13.23 101.64 0.91 2
6 09/13/2023 02:06:44 80.84,-179.26 78.40 09/13/2023 02:06:55 80.84,-179.21 78.41 0.97 11
7 09/13/2023 02:57:24 -80.85, -11.88 101.59 09/13/2023 02:57:59 -80.84, -11.95 101.58 1.30 35
8 09/13/2023 03:48:05 80.83, 155.23 78.40 09/13/2023 03:48:53 80.84, 155.25 78.43 0.69 48



Historial Predications of SNOs between METOP-B and NOAA-19
